This demonstration page uses our WeatherBlox Daily Observations layout. Learn more.

Left ArrowRight Arrow

44.8408, -93.29828

Hourly Observations for August 28, 2017

Temp ( °F °C ) Dew Point ( °F °C ) Humidity (%) Winds ( mph kmh ) Pressure ( in mb ) Visibility ( mi km ) Precip ( " mm )
12:53 am 00:53 Cloudy 64 17.8 60 15.6 87 87 NNW 8 13 30.04 1017 10 16 0.00 0.00
1:53 am 01:53 Cloudy 64 17.8 60 15.6 87 87 NNW 6 9 30.04 1017 10 16 0.00 0.00
2:53 am 02:53 Cloudy 64 17.8 60 15.6 87 87 N 10 17 30.04 1017 10 16 0.00 0.00
3:53 am 03:53 Cloudy 63 17.2 59 15 87 87 NNW 7 11 30.04 1017 10 16 0.00 0.00
4:10 am 04:10 Cloudy 62 16.7 59 15 90 90 NNW 6 9 30.03 1017 10 16 0.00 0.00
4:53 am 04:53 Cloudy 62 16.7 60 15.6 93 93 NNW 6 9 30.05 1018 10 16 0.00 0.00
5:22 am 05:22 Cloudy 62 16.7 59 15 90 90 N 6 9 30.03 1017 10 16 0.00 0.00
5:53 am 05:53 Cloudy 62 16.7 59 15 90 90 NNW 5 7 30.06 1018 10 16 0.00 0.00
6:53 am 06:53 Cloudy 63 17.2 59 15 87 87 N 8 13 30.07 1018 10 16 0.00 0.00
7:53 am 07:53 Mostly Cloudy 63 17.2 59 15 87 87 N 10 17 30.09 1019 10 16 0.00 0.00
8:40 am 08:40 Mostly Cloudy 64 17.8 59 15 84 84 N 7 11 30.06 1018 10 16 0.00 0.00
8:53 am 08:53 Cloudy 63 17.2 59 15 87 87 N 10 17 30.09 1019 10 16 0.00 0.00
9:05 am 09:05 Cloudy 64 17.8 59 15 84 84 N 8 13 30.06 1018 10 16 0.00 0.00
9:53 am 09:53 Cloudy 65 18.3 60 15.6 84 84 N 10 17 30.09 1019 10 16 0.00 0.00
10:34 am 10:34 Cloudy 65 18.3 59 15 81 81 NNE 10 17 30.06 1018 10 16 0.00 0.00
10:53 am 10:53 Mostly Cloudy 68 20 60 15.6 76 76 N 12 19 30.09 1019 10 16 0.00 0.00
11:53 am 11:53 Cloudy 66 18.9 58 14.4 75 75 NNE 9 15 30.09 1019 10 16 0.00 0.00
12:53 pm 12:53 Cloudy 69 20.6 60 15.6 73 73 N 8 13 30.09 1019 10 16 0.00 0.00
1:17 pm 13:17 Cloudy 68 20 59 15 73 73 N 10 17 30.06 1018 10 16 0.00 0.00
1:34 pm 13:34 Cloudy 69 20.6 59 15 70 70 N 9 15 30.06 1018 10 16 0.00 0.00
1:53 pm 13:53 Cloudy 69 20.6 59 15 70 70 NNE 8 13 30.09 1019 10 16 0.00 0.00
2:23 pm 14:23 Cloudy 69 20.6 59 15 70 70 N 8 13 30.06 1018 10 16 0.00 0.00
2:44 pm 14:44 Cloudy 69 20.6 59 15 70 70 NE 9 15 30.06 1018 10 16 0.00 0.00
2:53 pm 14:53 Cloudy 69 20.6 60 15.6 73 73 NNE 7 11 30.09 1019 10 16 0.00 0.00
3:53 pm 15:53 Mostly Cloudy 71 21.7 59 15 66 66 NNE 7 11 30.08 1019 10 16 0.00 0.00
4:53 pm 16:53 Partly Cloudy 73 22.8 59 15 62 62 NNE 6 9 30.07 1018 10 16 0.00 0.00
5:53 pm 17:53 Mostly Sunny 74 23.3 59 15 60 60 N 5 7 30.07 1018 10 16 0.00 0.00
6:53 pm 18:53 Mostly Sunny 73 22.8 59 15 62 62 NE 5 7 30.06 1018 10 16 0.00 0.00
7:53 pm 19:53 Mostly Sunny 70 21.1 59 15 68 68 NNE 5 7 30.06 1018 10 16 0.00 0.00
8:53 pm 20:53 Clear 68 20 59 15 73 73 N 5 7 30.08 1019 10 16 0.00 0.00
9:53 pm 21:53 Clear 65 18.3 60 15.6 84 84 N 3 6 30.09 1019 10 16 0.00 0.00
10:53 pm 22:53 Clear 65 18.3 60 15.6 84 84 Calm 30.09 1019 10 16 0.00 0.00
11:53 pm 23:53 Clear 65 18.3 60 15.6 84 84 VRB 3 6 30.09 1019 10 16 0.00 0.00

Powered by AerisWeather